Weather History for Austin, TX

Change the Weather History Date:

Saturday, February 8, 2014

  Actual Average Record
Temperature  
Mean Temperature 51 °F 54 °F  
Max Temperature 65 °F 64 °F 85 °F (1962)
Min Temperature 37 °F 44 °F 11 °F (1933)
Degree Days  
Heating Degree Days 14 12  
Month to date heating degree days 163 98  
Since 1 July heating degree days 1346 1138  
Cooling Degree Days 0 1  
Month to date cooling degree days 1 3  
Year to date cooling degree days 4 12  
Moisture  
Dew Point 36 °F    
Average Humidity 63    
Maximum Humidity 85    
Minimum Humidity 40    
Precipitation  
Precipitation 0.00 in 0.07 in 2.15 in (1908)
Month to date precipitation 0.17 0.53  
Year to date precipitation 0.62 2.75  
Snow  
Snow 0.00 in - - ()
Month to date snowfall 0.0  
Since 1 July snowfall 0.2  
Snow Depth 0.00 in    
Sea Level Pressure  
Sea Level Pressure 30.17 in    
Wind  
Wind Speed 5 mph (South)    
Max Wind Speed 14 mph    
Max Gust Speed 21 mph    
Visibility 7 miles    
Events      
T = Trace of Precipitation, MM = Missing Value Source: NWS Daily Summary

Daily Weather History Graph

Daily Weather History Graph

Search for Another Location

Airport:

Trip Planner

Search our weather history database for the weather conditions in past years. The results will help you decide how hot, cold, wet, or windy it might be!

Date:

Astronomy

Feb. 08, 2014 Rise Set
Actual Time 7:17 AM CST 6:13 PM CST
Civil Twilight 6:52 AM CST 6:38 PM CST
Nautical Twilight 6:23 AM CST 7:07 PM CST
Astronomical Twilight 5:55 AM CST 7:35 PM CST
Moon 1:15 PM CST (2/8) 2:25 AM CST (2/8)
Length of Visible Light 11h 46m
Length of Day
10h 56m
Waxing Gibbous, 69% of the Moon is Illuminated
Feb 8
Waxing Gibbous
Feb 14
Full
Feb 22
Last Quarter
Mar 1
New
Mar 8
First Quarter

Hourly Weather History & Observations

Time (CST) Temp. Windchill Dew Point Humidity Pressure Visibility Wind Dir Wind Speed Gust Speed Precip Events Conditions
12:51 AM 37.0 °F - 28.9 °F 73% 30.26 in 5.0 mi Calm Calm - N/A   Haze
1:51 AM 37.0 °F - 30.0 °F 76% 30.25 in 5.0 mi Calm Calm - N/A   Haze
2:23 AM 37.0 °F - 30.0 °F 76% 30.22 in 5.0 mi Calm Calm - N/A   Haze
2:51 AM 37.0 °F - 30.0 °F 76% 30.22 in 5.0 mi Calm Calm - N/A   Haze
3:51 AM 37.0 °F 34.5 °F 30.9 °F 79% 30.22 in 5.0 mi Variable 3.5 mph - N/A   Haze
4:08 AM 37.0 °F - 30.9 °F 79% 30.20 in 5.0 mi Calm Calm - N/A   Haze
4:51 AM 37.9 °F 35.5 °F 30.9 °F 76% 30.22 in 5.0 mi South 3.5 mph - N/A   Haze
5:51 AM 37.0 °F - 32.0 °F 82% 30.22 in 4.0 mi Calm Calm - N/A   Haze
6:51 AM 37.9 °F - 33.1 °F 83% 30.22 in 3.0 mi Calm Calm - N/A   Haze
7:51 AM 39.0 °F - 34.0 °F 82% 30.23 in 3.0 mi Calm Calm - N/A   Haze
8:51 AM 39.9 °F 35.8 °F 35.1 °F 83% 30.24 in 4.0 mi SSW 5.8 mph - N/A   Haze
9:51 AM 42.1 °F 40.2 °F 35.1 °F 76% 30.26 in 5.0 mi WNW 3.5 mph - N/A   Haze
10:31 AM 46.0 °F - 37.0 °F 71% 30.22 in 7.0 mi Calm Calm - N/A   Mostly Cloudy
10:48 AM 46.4 °F 45.2 °F 35.6 °F 66% 30.21 in 8.0 mi Variable 3.5 mph - N/A   Scattered Clouds
10:51 AM 46.9 °F - 36.0 °F 66% 30.23 in 8.0 mi Variable 4.6 mph - N/A   Partly Cloudy
11:51 AM 52.0 °F - 37.0 °F 57% 30.19 in 8.0 mi Variable 5.8 mph - N/A   Clear
12:51 PM 55.9 °F - 37.9 °F 51% 30.16 in 9.0 mi South 5.8 mph - N/A   Clear
1:51 PM 60.1 °F - 39.0 °F 46% 30.12 in 8.0 mi SE 9.2 mph - N/A   Clear
2:51 PM 64.0 °F - 41.0 °F 43% 30.08 in 10.0 mi SSE 10.4 mph 17.3 mph N/A   Clear
3:51 PM 64.9 °F - 41.0 °F 42% 30.06 in 10.0 mi SSE 8.1 mph - N/A   Clear
4:51 PM 64.0 °F - 39.9 °F 41% 30.03 in 10.0 mi South 8.1 mph 18.4 mph N/A   Clear
5:51 PM 60.1 °F - 42.1 °F 51% 30.05 in 10.0 mi SSE 13.8 mph - N/A   Clear
6:51 PM 55.0 °F - 42.1 °F 62% 30.06 in 10.0 mi SSE 10.4 mph - N/A   Clear
7:51 PM 52.0 °F - 42.1 °F 69% 30.08 in 10.0 mi SSE 9.2 mph - N/A   Clear
8:51 PM 50.0 °F - 41.0 °F 71% 30.12 in 10.0 mi South 5.8 mph - N/A   Clear
9:51 PM 48.0 °F - 41.0 °F 77% 30.12 in 8.0 mi South 5.8 mph - N/A   Clear
10:51 PM 46.0 °F 43.1 °F 39.9 °F 79% 30.13 in 6.0 mi Variable 5.8 mph - N/A   Haze
11:51 PM 45.0 °F 43.5 °F 39.9 °F 82% 30.13 in 5.0 mi South 3.5 mph - N/A   Haze